Regional Weather Roundup
Issued by NWS

Home | Current Version | Previous Version | Graphics & Text | Print | Product List | Glossary On
Versions: 1 2 3 4 5 6 7 8 9 10 11 12 13 14 15 16 17 18 19 20 21 22 23 24 25 26 27 28 29 30 31 32 33 34 35 36 37 38 39 40 41 42 43 44 45 46 47 48 49 50
000
ASUS45 KBOU 280207
RWRCO

WEATHER ROUNDUP FOR COLORADO
NATIONAL WEATHER SERVICE DENVER/BOULDER CO
800 PM MDT FRI MAR 27 2015

NOTE: "FAIR" INDICATES FEW OR NO CLOUDS BELOW 12000 FEET WITH NO
SIGNIFICANT WEATHER AND/OR OBSTRUCTIONS TO VISIBILITY.

COZ001>005-013-030-031-280300-
...NORTHWEST COLORADO...

CITY           SKY/WX    TMP DP  RH WIND       PRES   REMARKS
CRAIG          PTCLDY    52  32  46 SW13      30.17S
HAYDEN         MOCLDY    54  27  35 W5        30.19S
MEEKER         PTCLDY    50  29  44 CALM      30.20S
MOUNT WERNER   NOT AVBL
STEAMBOAT SPGS PTCLDY    51  31  46 E7        30.21R
WALDEN         MOCLDY    43  27  52 SW7       30.25S
$$

COZ006>008-011-280300-
...WEST CENTRAL VALLEYS...

CITY           SKY/WX    TMP DP  RH WIND       PRES   REMARKS
GRAND JUNCTION CLEAR     62  24  23 N7        30.13S
MONTROSE       CLEAR     63  21  20 SW3       30.20S
EAGLE          CLEAR     57  23  26 CALM      30.23S
RIFLE          CLEAR     59  25  27 CALM      30.16S
DELTA          CLEAR     67  22  17 W8        30.15S
NUCLA          CLEAR     59  21  23 W6        30.23S
$$

COZ017>023-064>068-280300-
...SOUTHWEST COLORADO...

CITY           SKY/WX    TMP DP  RH WIND       PRES   REMARKS
DURANGO        CLEAR     60  22  23 W17       30.20R
CORTEZ         CLEAR     56  23  27 S6        30.20S
PAGOSA SPRINGS CLEAR     58  21  24 CALM      30.24R
TELLURIDE      NOT AVBL
WOLF CREEK PAS PTCLDY    34  10  37 NE5       30.49S WCI  30
$$

COZ009-010-012-014-032>034-037-058>063-280300-
...CENTRAL COLORADO...

CITY           SKY/WX    TMP DP  RH WIND       PRES   REMARKS
ASPEN          PTCLDY    48  25  40 W6        30.26S
BUENA VISTA    LGT RAIN  52  24  33 NW10G35   30.28R
COPPER MTN     CLEAR     36  18  48 W17G25    30.45R
BERTHOUD PASS  FAIR      27  21  80 NW28G33   30.43S WCI  11
COTTONWOOD PAS PTCLDY    46  14  27 N5        30.37R
GUNNISON       CLEAR     52  19  28 SW6       30.30R
KREMMLING      CLEAR     50  23  34 CALM      30.26S
LEADVILLE      PTCLDY    36  21  54 N3        30.35R
SALIDA         PTCLDY    57  15  19 W12G17    30.31R
SUNLIGHT       CLEAR     41  21  45 CALM      30.45S
WILKERSON PASS CLEAR     34  18  51 N12G23    30.43R WCI  25
$$

COZ069>075-280300-
...SAN LUIS VALLEY/SANGRE DE CRISTO MOUNTAINS...

CITY           SKY/WX    TMP DP  RH WIND       PRES   REMARKS
ALAMOSA        PTCLDY    58  13  17 N18G29    30.21R
LA VETA PASS   CLOUDY    41  27  56 NW5       30.38R
SAGUACHE       CLEAR     54  19  26 N10       30.26R
$$

COZ035-036-038>040-280300-
...NORTHERN COLORADO FRONT RANGE...

CITY           SKY/WX    TMP DP  RH WIND       PRES   REMARKS
DENVER INTL AP MOCLDY    61  37  41 NE7       30.11R
DMNS CITY PARK   N/A     63  26  24 W15       30.12R
AURORA         PTCLDY    60  29  30 W10       30.13R
FRONT RANGE AP MOCLDY    63  36  36 MISG      30.12R
ERIE MUNI ARPT PTCLDY    61  28  28 W9        30.10R
BOULDER MUN AP PTCLDY    63  28  27 W9        30.11R
CENTENNIAL     PTCLDY    61  26  26 W12       30.14R
BROOMFIELD     PTCLDY    57  27  30 W12       30.13R
FORT COLLINS   PTCLDY    63  28  27 W8        30.10R
LONGMONT       PTCLDY    62  30  29 W10       30.11S
$$

COZ041-046-047-076>085-087-088-280300-
...PIKES PEAK/PALMER DIVIDE AND SOUTHERN FOOTHILLS...

CITY           SKY/WX    TMP DP  RH WIND       PRES   REMARKS
COLO. SPRINGS  PTCLDY    58  27  30 N3        30.17R
A. F. ACADEMY  CLEAR     52  28  39 VRB7      30.17R
ELLICOTT       CLEAR    N/A N/A N/A S8        30.15R
FALCON         PTCLDY    51  27  39 NW3       30.20R
FORT CARSON    PTCLDY    57  33  39 SW5       30.14R
LIMON          MOCLDY    57  31  37 N10       30.11R
MONUMENT HILL  PTCLDY    50  27  40 NW6       30.20R
TRINIDAD       MOCLDY    61  30  31 NE12      30.14R
$$

COZ042>045-048>051-090-091-280300-
...NORTHEAST COLORADO...

CITY           SKY/WX    TMP DP  RH WIND       PRES   REMARKS
GREELEY ARPT   MOCLDY    59  27  29 W6        30.06R
AKRON          PTCLDY    51  33  50 N12       30.04R
BURLINGTON     PTCLDY    56  35  45 SW3       30.04R
WRAY           MOCLDY    56  31  39 NW8       30.00R
STERLING       PTCLDY    52  32  46 NW8       30.00S
HOLYOKE        MOCLDY    59  32  36 NW5       29.99R
FORT MORGAN    PTCLDY   N/A N/A N/A N8        30.05R
$$

COZ086-089-092>099-280300-
...SOUTHEAST COLORADO...

CITY           SKY/WX    TMP DP  RH WIND       PRES   REMARKS
PUEBLO         PTCLDY    60  32  34 E6        30.08R
LA JUNTA       PTCLDY    62  31  31 S7        30.06S
LAMAR          PTCLDY    53  33  46 SW10      30.02R
SPRINGFIELD      N/A     57  34  41 CALM      30.10R
$$



USA.gov is the U.S. government's official web portal to all federal, state and local government web resources and services.